sat.trackr.live / text

‹ back to catalog

STARLINK-35171

NORAD 65605 · 2025-207P

PAYLOAD ACTIVE UNKNOWN

§ Identity

Operator
Country
US
Launch date
2025-09-13
Launch site
AFWTR
Launch vehicle
Mass (kg)
RCS (m²)

Purposes: comms

External: N2YO · Heavens-Above · Gunter

§ Orbital elements

Epoch: 2026-05-25T02:55:52.673952Z

Period
95.65 min
Inclination
97.4504°
Eccentricity
0.0000685
Mean motion
15.05515823 rev/d
Perigee alt
549.4 km
Apogee alt
550.4 km
Semi-major
6,928.1 km
B*
-4.2549e-3
RAAN
213.6569°
Arg perigee
139.1255°
Mean anomaly
221.0024°
Rev number
3,960

§ Raw data

STARLINK-351711 65605U 25207P   26145.12213743 -.00060710  00000+0 -42549-2 0  99902 65605  97.4504 213.6569 0000685 139.1255 221.0024 15.05515823 39604

JSON: /api/v1/satellites/65605 · /tle

For live sub-satellite position, see the globe view (requires WebGL).

§ Visibility from observer

Set your observer location to see the next 7 days of passes ≥ 10°. The values pass through the URL so the page stays shareable.

No JS? Fill the form by hand. The geolocation button needs JavaScript.